DW9727 Weather Reports


Display with metric or nautical units.
time (UTC)temp
F
wind
direction
speed
MPH
gust
MPH
rain 1hr
in
rain 24hr
in
rain mn
in
humidity
%
barometer
mb
20260506173710 56 316 9.0 18.0 0.00 0.00 0.00 34 1019.2
20260506172711 56 309 12.0 17.0 0.00 0.00 0.00 36 1019.3
20260506171710 57 318 12.0 23.0 0.00 0.00 0.00 38 1019.4
20260506170710 58 335 12.0 21.0 0.00 0.00 0.00 38 1019.5
20260506165710 57 306 14.0 20.0 0.00 0.00 0.00 38 1019.6
20260506164711 55 309 8.0 17.0 0.00 0.00 0.00 43 1019.6
20260506163711 57 317 10.0 18.0 0.00 0.00 0.00 40 1019.6
20260506162711 54 330 10.0 17.0 0.00 0.00 0.00 38 1019.9
20260506161710 53 298 4.0 12.0 0.00 0.00 0.00 41 1019.9
20260506160711 54 306 10.0 16.0 0.00 0.00 0.00 36 1019.9
20260506155711 54 313 10.0 16.0 0.00 0.00 0.00 42 1019.7
20260506154711 54 296 10.0 15.0 0.00 0.00 0.00 40 1019.8
20260506153710 54 313 6.0 14.0 0.00 0.00 0.00 40 1019.8
20260506152710 52 297 6.0 15.0 0.00 0.00 0.00 43 1019.8
20260506151711 53 326 5.0 14.0 0.00 0.00 0.00 43 1019.6
20260506150711 53 329 7.0 12.0 0.00 0.00 0.00 47 1020.0
20260506145710 52 295 8.0 15.0 0.00 0.00 0.00 43 1019.9
20260506144711 51 269 5.0 12.0 0.00 0.00 0.00 43 1019.9
20260506142711 50 217 5.0 9.0 0.00 0.00 0.00 44 1019.9
20260506141711 49 227 5.0 7.0 0.00 0.00 0.00 45 1019.8
20260506140711 49 249 3.0 7.0 0.00 0.00 0.00 49 1019.9
20260506134711 47 228 2.0 3.0 0.00 0.00 0.00 50 1019.7
20260506133711 46 279 1.0 3.0 0.00 0.00 0.00 56 1019.5
20260506132710 44 284 2.0 3.0 0.00 0.00 0.00 57 1019.6
20260506131710 42 277 2.0 3.0 0.00 0.00 0.00 61 1019.4
20260506130710 41 311 3.0 5.0 0.00 0.00 0.00 65 1019.3
20260506125711 40 294 3.0 6.0 0.00 0.00 0.00 65 1019.4
20260506124710 39 303 2.0 5.0 0.00 0.00 0.00 68 1019.3
20260506123711 38 296 3.0 5.0 0.00 0.00 0.00 69 1019.2
20260506122710 37 287 3.0 5.0 0.00 0.00 0.00 71 1019.0
20260506115710 35 299 3.0 3.0 0.00 0.00 0.00 71 1018.9
20260506114711 35 291 2.0 3.0 0.00 0.00 0.00 71 1018.9
20260506113711 34 305 2.0 3.0 0.00 0.00 0.00 70 1018.5
20260506112710 34 294 2.0 3.0 0.00 0.00 0.00 69 1018.7
20260506111711 35 294 1.0 2.0 0.00 0.00 0.00 69 1018.3
20260506110710 35 294 1.0 2.0 0.00 0.00 0.00 70 1018.3
20260506105710 35 294 1.0 3.0 0.00 0.00 0.00 71 1018.2
20260506104711 35 294 1.0 2.0 0.00 0.00 0.00 70 1018.1
20260506103711 35 294 1.0 3.0 0.00 0.00 0.00 69 1017.9
20260506102711 35 294 2.0 3.0 0.00 0.00 0.00 69 1018.0
20260506101711 35 296 1.0 3.0 0.00 0.00 0.00 69 1018.0
20260506095710 35 292 2.0 3.0 0.00 0.00 0.00 70 1017.8
20260506093710 36 298 0.0 2.0 0.00 0.00 0.00 67 1017.7
20260506092710 36 297 0.0 2.0 0.00 0.00 0.00 67 1017.5
20260506091710 37 302 1.0 3.0 0.00 0.00 0.00 67 1017.5
20260506090712 37 331 1.0 3.0 0.00 0.00 0.00 67 1017.5
20260506085710 37 313 1.0 3.0 0.00 0.00 0.00 67 1017.5
20260506083710 38 293 1.0 2.0 0.00 0.00 0.00 66 1017.0
20260506082710 38 293 2.0 3.0 0.00 0.00 0.00 64 1017.0
20260506081710 39 312 1.0 1.0 0.00 0.00 0.00 63 1016.8
20260506080711 39 312 0.0 0.0 0.00 0.00 0.00 61 1016.8
20260506072710 41 312 1.0 2.0 0.00 0.00 0.00 60 1016.8
20260506070711 42 9 0.0 0.0 0.00 0.00 0.00 55 1016.6
20260506061710 44 9 1.0 2.0 0.00 0.00 0.00 50 1016.4
20260506060710 44 11 1.0 2.0 0.00 0.00 0.00 49 1016.4
20260506044711 46 11 2.0 3.0 0.00 0.01 0.01 46 1015.9
20260506043710 46 5 1.0 3.0 0.00 0.01 0.01 46 1015.8
20260506042710 46 25 2.0 3.0 0.00 0.01 0.01 45 1015.7
20260506041711 47 19 1.0 3.0 0.00 0.01 0.01 44 1015.7
20260506040710 47 336 1.0 2.0 0.00 0.01 0.01 46 1015.8
20260506035710 47 11 1.0 3.0 0.00 0.01 0.01 43 1015.6
20260506034711 47 6 2.0 3.0 0.00 0.01 0.01 42 1015.6
20260506033710 48 5 1.0 3.0 0.00 0.01 0.01 43 1015.7
20260506031711 48 12 2.0 3.0 0.00 0.01 0.01 43 1015.2
20260506030710 48 30 2.0 3.0 0.00 0.01 0.01 42 1015.2
20260506025711 48 0 2.0 7.0 0.00 0.01 0.01 41 1015.1
20260506024711 48 13 2.0 5.0 0.00 0.01 0.01 42 1014.9
20260506023710 49 15 2.0 3.0 0.00 0.01 0.01 41 1014.8
20260506022710 49 334 3.0 5.0 0.00 0.01 0.01 40 1014.6
20260506021710 49 5 2.0 9.0 0.00 0.01 0.01 41 1014.3
20260506020710 50 354 3.0 10.0 0.00 0.01 0.01 40 1014.1
20260506015710 50 5 3.0 8.0 0.00 0.01 0.01 40 1014.0
20260506014710 51 11 2.0 5.0 0.00 0.01 0.01 39 1013.9
20260506013710 51 15 3.0 7.0 0.00 0.01 0.01 38 1013.6
20260506012710 51 22 4.0 10.0 0.00 0.01 0.01 37 1013.6
20260506011710 52 18 2.0 9.0 0.00 0.01 0.01 35 1013.6
20260506005710 53 331 7.0 15.0 0.00 0.01 0.01 34 1013.2
20260506004711 53 9 6.0 12.0 0.00 0.01 0.01 35 1013.1
20260506003710 53 348 6.0 10.0 0.00 0.01 0.01 35 1012.9
20260506002710 53 3 7.0 12.0 0.00 0.01 0.01 35 1012.8
20260506001710 53 349 6.0 14.0 0.00 0.01 0.01 36 1012.9
20260506000710 54 0 9.0 16.0 0.00 0.01 0.01 36 1012.9
20260505233710 54 334 10.0 17.0 0.00 0.01 0.01 36 1012.7
20260505232710 55 332 9.0 20.0 0.00 0.01 0.01 35 1012.6
20260505231711 55 325 10.0 17.0 0.00 0.01 0.01 38 1012.5
20260505230710 55 305 8.0 24.0 0.00 0.01 0.01 37 1012.5
20260505225710 55 304 8.0 18.0 0.00 0.01 0.01 37 1012.5
20260505223710 56 336 11.0 18.0 0.00 0.01 0.01 37 1012.5
20260505222711 56 17 9.0 21.0 0.00 0.01 0.01 38 1012.5
20260505220710 58 313 10.0 22.0 0.00 0.01 0.01 36 1012.4
20260505215710 58 298 13.0 20.0 0.00 0.01 0.01 38 1012.4
20260505214710 58 325 16.0 23.0 0.00 0.01 0.01 36 1012.2
20260505212710 58 335 14.0 24.0 0.00 0.01 0.01 37 1012.4
20260505211710 59 23 10.0 20.0 0.00 0.01 0.01 35 1012.3
20260505210710 60 327 12.0 18.0 0.00 0.01 0.01 39 1012.5
20260505205710 60 34 13.0 21.0 0.00 0.01 0.01 36 1012.4
20260505203710 60 286 13.0 17.0 0.00 0.01 0.01 40 1012.5
20260505200710 58 9 9.0 16.0 0.00 0.01 0.01 40 1012.9
20260505195710 58 315 4.0 17.0 0.00 0.01 0.01 40 1013.0
20260505194711 60 315 10.0 18.0 0.00 0.01 0.01 44 1013.1
20260505192710 60 264 10.0 16.0 0.00 0.01 0.01 44 1013.3
20260505191711 59 35 7.0 12.0 0.00 0.01 0.01 47 1013.3
20260505190711 59 327 7.0 16.0 0.00 0.01 0.01 42 1013.4
20260505185711 59 317 7.0 14.0 0.00 0.01 0.01 45 1013.3
20260505184711 57 325 7.0 13.0 0.00 0.01 0.01 44 1013.3
20260505182710 56 324 9.0 13.0 0.00 0.01 0.01 45 1013.5